Los Alamos, NM

3:12 PM MDT on April 26, 2017 (GMT -0600)
Los Alamos

Weather History for KLAM - February, 2013

Change the Weather History Date:

Tuesday, February 12, 2013

  Actual Average Record
Temperature  
Mean Temperature 24 °F -  
Max Temperature 33 °F 45 °F 63 °F (1962)
Min Temperature 15 °F 21 °F -9 °F (1948)
Degree Days  
Heating Degree Days 41    
Moisture  
Dew Point 10 °F    
Average Humidity 56    
Maximum Humidity 99    
Minimum Humidity 28    
Precipitation  
Precipitation 0.00 in - - ()
Sea Level Pressure  
Sea Level Pressure 30.02 in    
Wind  
Wind Speed 6 mph (NNE)    
Max Wind Speed 14 mph    
Max Gust Speed 20 mph    
Visibility 10 miles    
Events      
Averages and records for this station are not official NWS values.
T = Trace of Precipitation, MM = Missing Value Source: NWS Daily Summary

Daily Weather History Graph

Daily Weather History Graph

Search for Another Location

Airport or City:

Trip Planner

Search our weather history database for the weather conditions in past years. The results will help you decide how hot, cold, wet, or windy it might be!

Date:

Astronomy

Feb. 12, 2013 Rise Set
Actual Time 6:55 AM MST 5:44 PM MST
Civil Twilight 6:28 AM MST 6:10 PM MST
Nautical Twilight 5:58 AM MST 6:40 PM MST
Astronomical Twilight 5:28 AM MST 7:10 PM MST
Moon 8:00 AM MST (2/12) 8:39 PM MST (2/12)
Length of Visible Light 11h 41m
Length of Day
10h 48m
Waxing Crescent, 8% of the Moon is Illuminated
Feb 12
Waxing Crescent
Feb 17
First Quarter
Feb 25
Full
Mar 4
Last Quarter
Mar 11
New

Hourly Weather History & Observations

Time (MST) Temp. Windchill Dew Point Humidity Pressure Visibility Wind Dir Wind Speed Gust Speed Precip Events Conditions
12:15 AM 22.1 °F 12.0 °F 21.9 °F 99% 29.92 in - North 9.2 mph - N/A   Unknown
12:35 AM 21.7 °F 11.5 °F 21.4 °F 99% 29.92 in 10.0 mi NNE 9.2 mph - N/A   Clear
12:55 AM 21.7 °F 10.8 °F 21.2 °F 98% 29.91 in 10.0 mi North 10.4 mph 16.1 mph N/A   Clear
1:15 AM 21.2 °F 11.7 °F 19.4 °F 93% 29.92 in - NNE 8.1 mph - N/A   Unknown
1:35 AM 22.1 °F 12.0 °F 17.8 °F 83% 29.93 in - NNE 9.2 mph - N/A   Unknown
1:55 AM 21.9 °F 11.7 °F 19.4 °F 90% 29.94 in - NE 9.2 mph - N/A   Unknown
2:15 AM 22.5 °F 12.4 °F 18.5 °F 85% 29.95 in - North 9.2 mph - N/A   Unknown
2:35 AM 21.9 °F 13.4 °F 17.6 °F 83% 29.95 in - North 6.9 mph - N/A   Clear
2:55 AM 21.2 °F 12.6 °F 16.7 °F 83% 29.94 in - NW 6.9 mph - N/A   Unknown
3:15 AM 21.4 °F 13.8 °F 15.3 °F 77% 29.94 in - WNW 5.8 mph - N/A   Clear
3:35 AM 22.3 °F 12.2 °F 12.0 °F 65% 29.93 in - NW 9.2 mph - N/A   Clear
3:55 AM 22.6 °F 12.6 °F 10.4 °F 59% 29.94 in - NW 9.2 mph - N/A   Clear
4:15 AM 22.6 °F 13.4 °F 10.2 °F 59% 29.94 in - North 8.1 mph - N/A   Clear
4:35 AM 22.5 °F 11.1 °F 10.4 °F 60% 29.94 in - North 11.5 mph - N/A   Clear
4:55 AM 22.8 °F 12.2 °F 10.2 °F 59% 29.95 in - North 10.4 mph 17.3 mph N/A   Clear
5:15 AM 22.8 °F 10.9 °F 10.4 °F 59% 29.96 in - NNW 12.7 mph 19.6 mph N/A   Clear
5:35 AM 22.1 °F 11.3 °F 10.4 °F 61% 29.97 in - North 10.4 mph - N/A   Clear
5:55 AM 22.5 °F 9.9 °F 10.4 °F 60% 29.97 in 10.0 mi North 13.8 mph - N/A   Clear
6:15 AM 21.2 °F 11.7 °F 10.4 °F 63% 29.98 in 10.0 mi North 8.1 mph - N/A   Clear
6:35 AM 21.2 °F 11.7 °F 9.5 °F 61% 29.98 in 10.0 mi North 8.1 mph - N/A   Clear
6:55 AM 20.3 °F 9.8 °F 9.9 °F 64% 30.00 in 10.0 mi North 9.2 mph - N/A   Clear
7:15 AM 18.1 °F 10.0 °F 10.4 °F 72% 30.00 in 10.0 mi NNE 5.8 mph - N/A   Clear
7:35 AM 15.1 °F 4.2 °F 11.1 °F 84% 30.01 in 10.0 mi NNE 8.1 mph - N/A   Clear
7:55 AM 16.7 °F 8.3 °F 11.3 °F 79% 30.02 in 10.0 mi North 5.8 mph - N/A   Clear
8:15 AM 17.2 °F 10.2 °F 12.0 °F 80% 30.03 in 10.0 mi North 4.6 mph - N/A   Clear
8:35 AM 19.2 °F 10.2 °F 12.2 °F 74% 30.03 in 10.0 mi NNE 6.9 mph - N/A   Clear
8:55 AM 20.3 °F 10.6 °F 12.9 °F 73% 30.04 in 10.0 mi NE 8.1 mph - N/A   Clear
9:15 AM 20.3 °F 11.5 °F 12.9 °F 73% 30.05 in 10.0 mi NE 6.9 mph - N/A   Clear
9:35 AM 21.2 °F 12.6 °F 13.1 °F 71% 30.05 in 10.0 mi NNE 6.9 mph - N/A   Clear
9:55 AM 22.6 °F - 13.5 °F 68% 30.06 in 10.0 mi Calm Calm - N/A   Clear
10:15 AM 23.5 °F 16.4 °F 13.3 °F 65% 30.06 in 10.0 mi NNE 5.8 mph - N/A   Clear
10:35 AM 24.4 °F - 13.3 °F 63% 30.07 in 10.0 mi Calm Calm - N/A   Clear
10:55 AM 25.3 °F 19.7 °F 13.8 °F 62% 30.07 in 10.0 mi ENE 4.6 mph - N/A   Clear
11:15 AM 26.4 °F 20.9 °F 15.3 °F 63% 30.06 in 10.0 mi ENE 4.6 mph - N/A   Clear
11:35 AM 26.6 °F 21.2 °F 14.9 °F 61% 30.06 in 10.0 mi East 4.6 mph - N/A   Clear
11:55 AM 28.2 °F - 15.6 °F 59% 30.06 in 10.0 mi Calm Calm - N/A   Clear
12:15 PM 28.6 °F 22.4 °F 15.3 °F 58% 30.05 in 10.0 mi ENE 5.8 mph - N/A   Clear
12:35 PM 29.1 °F 24.1 °F 14.5 °F 55% 30.05 in 10.0 mi NE 4.6 mph - N/A   Clear
12:55 PM 30.0 °F 26.5 °F 14.2 °F 52% 30.05 in 10.0 mi ESE 3.5 mph - N/A   Clear
1:15 PM 31.3 °F 24.7 °F 15.3 °F 52% 30.04 in 10.0 mi ESE 6.9 mph - N/A   Clear
1:35 PM 31.1 °F 25.4 °F 14.0 °F 49% 30.03 in 10.0 mi East 5.8 mph - N/A   Clear
1:55 PM 31.8 °F 28.5 °F 12.4 °F 45% 30.02 in 10.0 mi ENE 3.5 mph - N/A   Clear
2:15 PM 31.8 °F - 10.9 °F 42% 30.02 in 10.0 mi Calm Calm - N/A   Clear
2:35 PM 32.4 °F - 7.2 °F 35% 30.02 in 10.0 mi Calm Calm - N/A   Clear
3:15 PM 33.4 °F 28.1 °F 6.3 °F 32% 30.02 in 10.0 mi ENE 5.8 mph - N/A   Clear
3:35 PM 33.6 °F - 5.5 °F 31% 30.02 in 10.0 mi Calm Calm - N/A   Clear
3:55 PM 33.8 °F - 4.3 °F 29% 30.02 in 10.0 mi Calm Calm - N/A   Clear
4:15 PM 33.6 °F - 3.7 °F 28% 30.03 in 10.0 mi Calm Calm - N/A   Clear
4:35 PM 33.8 °F - 4.8 °F 30% 30.03 in 10.0 mi Calm Calm - N/A   Clear
4:55 PM 33.8 °F - 3.6 °F 28% 30.03 in 10.0 mi Calm Calm - N/A   Clear
5:15 PM 33.8 °F - 3.2 °F 28% 30.04 in 10.0 mi Calm Calm - N/A   Clear
5:35 PM 32.9 °F - 4.8 °F 31% 30.04 in 10.0 mi Calm Calm - N/A   Clear
5:55 PM 32.0 °F - 3.2 °F 30% 30.05 in 10.0 mi Calm Calm - N/A   Clear
6:15 PM 31.1 °F - 2.3 °F 29% 30.06 in 10.0 mi Calm Calm - N/A   Clear
6:35 PM 31.1 °F - 2.1 °F 29% 30.06 in 10.0 mi Calm Calm - N/A   Clear
7:35 PM 30.0 °F - 1.2 °F 29% 30.08 in 10.0 mi Calm Calm - N/A   Clear
7:55 PM 29.3 °F - -0.0 °F 28% 30.09 in 10.0 mi Calm Calm - N/A   Clear
8:15 PM 28.9 °F - 0.3 °F 29% 30.10 in 10.0 mi Calm Calm - N/A   Clear
8:35 PM 27.5 °F - 1.9 °F 33% 30.10 in 10.0 mi Calm Calm - N/A   Clear
8:55 PM 27.5 °F - 2.1 °F 34% 30.10 in 10.0 mi Calm Calm - N/A   Clear
9:15 PM 27.0 °F - 3.9 °F 37% 30.10 in 10.0 mi Calm Calm - N/A   Clear
9:35 PM 26.4 °F - 5.7 °F 41% 30.11 in - Calm Calm - N/A   Clear
9:55 PM 25.7 °F - 5.7 °F 43% 30.11 in - Calm Calm - N/A   Clear
10:15 PM 24.8 °F - 6.8 °F 46% 30.11 in - Calm Calm - N/A   Clear
10:35 PM 25.0 °F - 7.2 °F 47% 30.11 in 10.0 mi Calm Calm - N/A   Clear
10:55 PM 24.3 °F - 7.5 °F 49% 30.11 in 10.0 mi Calm Calm - N/A   Clear
11:15 PM 23.9 °F - 7.7 °F 50% 30.10 in 10.0 mi Calm Calm - N/A   Clear
11:35 PM 24.1 °F - 7.9 °F 50% 30.11 in 10.0 mi Calm Calm - N/A   Clear
11:55 PM 23.9 °F - 7.9 °F 51% 30.10 in 10.0 mi Calm Calm - N/A   Clear